FW3304 Weather Reports


Display with metric or nautical units.
time (UTC)temp
F
wind
direction
speed
MPH
gust
MPH
rain 1hr
in
rain 24hr
in
rain mn
in
humidity
%
barometer
mb
20210916154535 72 55 2.0 6.0 0.00 0.00 0.00 91 1016.6
20210916153105 71 33 3.0 6.0 0.00 0.00 0.00 94 1016.6
20210916151526 70 48 2.0 5.0 0.00 0.00 0.00 97 1016.6
20210916150030 70 62 1.0 5.0 0.00 0.00 0.00 97 1016.7
20210916144518 69 131 2.0 4.0 0.00 0.00 0.00 97 1016.4
20210916143021 69 57 2.0 4.0 0.00 0.00 0.00 97 1016.4
20210916141513 69 76 2.0 6.0 0.00 0.00 0.00 97 1016.5
20210916140013 69 75 2.0 4.0 0.00 0.00 0.00 97 1016.4
20210916134534 69 112 1.0 3.0 0.00 0.00 0.00 97 1016.3
20210916133018 69 115 1.0 4.0 0.00 0.00 0.00 97 1016.2
20210916131505 69 75 0.0 2.0 0.00 0.00 0.00 97 1016.2
20210916130001 69 81 1.0 4.0 0.00 0.06 0.00 97 1016.2
20210916124626 69 82 1.0 3.0 0.00 0.06 0.00 97 1016.0
20210916123120 68 101 1.0 5.0 0.00 0.06 0.00 97 1015.9
20210916121556 68 69 1.0 5.0 0.00 0.06 0.00 97 1015.7
20210916120112 68 63 1.0 4.0 0.00 0.06 0.00 97 1015.5
20210916114605 68 61 1.0 3.0 0.00 0.06 0.00 97 1015.4
20210916113106 68 61 2.0 4.0 0.00 0.06 0.00 97 1015.2
20210916111552 68 56 2.0 4.0 0.00 0.06 0.00 97 1015.1
20210916110104 68 77 2.0 4.0 0.00 0.06 0.00 97 1015.0
20210916104655 68 73 2.0 4.0 0.00 0.06 0.00 96 1014.8
20210916103047 68 78 2.0 3.0 0.00 0.06 0.00 96 1014.6
20210916101547 68 72 2.0 5.0 0.00 0.06 0.00 96 1014.6
20210916100050 68 79 2.0 5.0 0.00 0.06 0.00 96 1014.5
20210916093107 68 30 0.0 0.0 0.00 0.06 0.00 96 1014.1
20210916091610 68 30 0.0 0.0 0.00 0.06 0.00 96 1014.1
20210916090103 68 30 0.0 0.0 0.00 0.06 0.00 96 1014.0
20210916084541 68 30 0.0 0.0 0.00 0.06 0.00 96 1013.8
20210916083051 67 32 0.0 0.0 0.00 0.06 0.00 96 1013.8
20210916081557 67 32 0.0 0.0 0.00 0.06 0.00 95 1013.8
20210916080107 68 32 0.0 0.0 0.00 0.06 0.00 95 1013.8
20210916074545 68 32 0.0 0.0 0.00 0.06 0.00 95 1014.0
20210916073115 68 32 0.0 1.0 0.00 0.06 0.00 95 1014.1
20210916071553 69 32 0.0 1.0 0.00 0.06 0.00 95 1014.1
20210916070041 68 32 0.0 1.0 0.00 0.06 0.00 96 1014.2
20210916064537 68 32 0.0 0.0 0.00 0.06 0.00 95 1014.3
20210916063028 69 32 0.0 3.0 0.00 0.06 0.00 96 1014.2
20210916061525 67 31 0.0 2.0 0.00 0.06 0.00 95 1014.3
20210916060038 67 30 0.0 0.0 0.00 0.06 0.00 94 1014.4
20210916054528 67 30 0.0 0.0 0.00 0.06 0.00 94 1014.4
20210916053022 68 30 0.0 0.0 0.00 0.06 0.00 94 1014.4
20210916051543 68 30 0.0 0.0 0.00 0.06 0.00 94 1014.5
20210916050028 68 30 0.0 0.0 0.00 0.06 0.06 94 1014.5
20210916044516 69 30 0.0 0.0 0.00 0.06 0.06 94 1014.5
20210916043020 69 30 0.0 0.0 0.00 0.06 0.06 94 1014.5
20210916041513 69 30 0.0 0.0 0.00 0.06 0.06 93 1014.5
20210916040014 70 30 0.0 0.0 0.00 0.06 0.06 93 1014.6
20210916034540 70 30 0.0 0.0 0.00 0.06 0.06 93 1014.5
20210916033020 71 30 0.0 5.0 0.00 0.06 0.06 94 1014.7
20210916031510 70 30 0.0 0.0 0.00 0.06 0.06 93 1014.7
20210916030027 70 30 0.0 0.0 0.00 0.06 0.06 93 1014.6
20210916024509 70 30 1.0 4.0 0.00 0.06 0.06 94 1014.6
20210916023009 70 124 0.0 0.0 0.00 0.06 0.06 92 1014.5
20210916021554 70 124 0.0 0.0 0.00 0.06 0.06 91 1014.3
20210916020022 71 124 0.0 0.0 0.00 0.06 0.06 91 1014.1
20210916014510 72 124 0.0 0.0 0.00 0.06 0.06 90 1014.0
20210916013006 72 124 0.0 0.0 0.00 0.06 0.06 90 1013.8
20210916011518 72 124 0.0 0.0 0.00 0.06 0.06 89 1013.6
20210916010009 73 124 0.0 0.0 0.00 0.06 0.06 88 1013.5
20210916004517 74 124 0.0 0.0 0.00 0.06 0.06 87 1013.3
20210916003004 75 124 0.0 0.0 0.00 0.06 0.06 87 1013.3
20210916001515 75 107 0.0 0.0 0.00 0.06 0.06 85 1013.1
20210916000020 76 107 0.0 0.0 0.00 0.06 0.06 84 1013.0
20210915234502 77 122 0.0 3.0 0.00 0.06 0.06 82 1012.9
20210915233001 78 99 1.0 3.0 0.00 0.06 0.06 80 1012.7
20210915231638 80 190 0.0 0.0 0.00 0.06 0.06 77 1012.4
20210915230119 80 210 0.0 2.0 0.00 0.06 0.06 76 1012.2
20210915224644 80 210 0.0 2.0 0.00 0.06 0.06 76 1012.1
20210915223200 79 210 2.0 5.0 0.00 0.06 0.06 77 1012.1
20210915221652 80 185 2.0 5.0 0.00 0.06 0.06 77 1012.1
20210915220259 79 105 2.0 6.0 0.00 0.06 0.06 78 1012.1
20210915214633 79 139 2.0 5.0 0.00 0.06 0.06 77 1012.0
20210915213136 79 133 4.0 6.0 0.00 0.06 0.06 76 1012.0
20210915211723 79 150 3.0 5.0 0.00 0.06 0.06 77 1012.1
20210915210211 79 150 4.0 8.0 0.00 0.06 0.06 76 1012.2
20210915204719 79 167 2.0 9.0 0.00 0.06 0.06 77 1012.4
20210915203116 78 173 2.0 7.0 0.00 0.06 0.06 79 1012.7
20210915201615 77 209 3.0 8.0 0.00 0.06 0.06 80 1012.7
20210915200152 78 154 4.0 8.0 0.00 0.07 0.06 79 1013.0
20210915194704 78 164 4.0 7.0 0.00 0.07 0.06 81 1013.1
20210915193143 77 187 3.0 8.0 0.00 0.07 0.06 80 1013.2
20210915191607 78 206 5.0 8.0 0.00 0.07 0.06 80 1013.3
20210915190104 77 195 3.0 9.0 0.00 0.07 0.06 84 1013.5
20210915184633 77 179 3.0 9.0 0.00 0.07 0.06 83 1013.5
20210915183051 77 160 5.0 10.0 0.00 0.07 0.06 82 1013.7
20210915181558 77 165 3.0 10.0 0.00 0.07 0.06 83 1013.7
20210915180057 77 191 3.0 10.0 0.00 0.07 0.06 83 1013.9
20210915174601 77 139 6.0 9.0 0.00 0.07 0.06 83 1014.0
20210915173025 76 141 2.0 8.0 0.00 0.07 0.06 86 1014.3
20210915171520 76 219 5.0 7.0 0.00 0.07 0.06 85 1014.4
20210915170027 76 205 3.0 8.0 0.00 0.07 0.06 85 1014.3
20210915164518 76 176 1.0 5.0 0.00 0.07 0.06 85 1014.3
20210915163021 76 150 0.0 0.0 0.00 0.07 0.06 84 1014.4
20210915161524 75 150 0.0 0.0 0.00 0.07 0.06 85 1014.4
20210915160022 74 12 0.0 0.0 0.00 0.07 0.06 87 1014.3